Location: Griffin Corner
(35.3259°N, 89.9856°W)
Time: 06:07:12
(UTC+00:00)

Daily predictions for brighter satellites

Satellite Brightness Start Highest point End
(mag) Time Altitude Azimuth Time Altitude Azimuth Time Altitude Azimuth
CBERS-1 4.0 12:02:43 10° N 12:07:49 73° WNW 12:12:52 10° SSW
Cosmos 1025 Rocket 3.3 12:04:04 10° SSW 12:08:13 46° W 12:12:25 10° N
CORIOLIS 4.2 23:13:52 10° SSE 23:19:10 65° ENE 23:24:28 10° N
CBERS-1 4.5 23:14:25 10° S 23:19:29 69° WSW 23:24:35 10° NNW
Cosmos 407 Rocket 3.6 23:18:30 10° S 23:23:35 56° ESE 23:28:38 10° NNE
ISS -2.8 23:21:06 10° WSW 23:24:17 42° NW 23:27:29 10° NE
CZ-2D R/B 3.1 23:22:16 10° SSE 23:25:13 40° ENE 23:28:13 10° N
SL-12 R/B(2) 4.2 23:18:14 10° SSW 23:25:46 80° ESE 23:34:47 10° NNE
Cosmos 1943 Rocket 2.3 23:22:30 10° S 23:27:58 56° ESE 23:33:27 10° NNE
Cosmos 2278 Rocket 2.4 23:22:53 10° S 23:28:21 54° ESE 23:33:51 10° NNE
OAO 3 Rocket 3.4 23:24:05 10° WSW 23:28:42 63° SSE 23:33:15 10° E
Cosmos 2082 Rocket 3.8 23:27:33 10° NNE 23:30:15 13° NE 23:32:57 10° E
Aureole 3 Rocket 3.3 23:27:45 10° SSE 23:30:30 26° E 23:33:04 10° NE
IRS-1C 4.1 23:25:26 10° SSE 23:30:40 63° ENE 23:35:55 10° N
Cosmos 1975 Rocket 3.1 23:30:03 10° N 23:34:19 53° E 23:38:34 10° SSE
ATLAS 5 CENTAUR R/B 2.3 23:32:03 10° NNW 23:36:35 44° ENE 23:42:06 10° SE
MOS 1 Rocket 3.6 23:35:13 10° SE 23:39:06 36° ENE 23:43:06 10° N
SAR-Lupe-1 3.9 23:35:52 10° SSE 23:39:24 76° ENE 23:42:58 10° N
COSMO-SKYMED 1 3.4 23:37:48 10° NE 23:41:21 27° E 23:44:52 10° SSE
USA 215 3.3 23:35:15 10° ESE 23:41:41 65° NE 23:48:09 10° NW
SKYMED 2 3.8 23:41:32 10° NNE 23:45:44 48° E 23:49:55 10° S
Helios 1A Rocket 3.3 23:43:12 10° NE 23:46:12 29° E 23:49:11 10° SSE
SAR-Lupe-4 4.3 23:48:04 10° S 23:51:35 58° W 23:55:07 10° NNW
RESURS DK-1 3.3 23:52:25 10° N 23:55:45 25° ENE 23:57:09 20° E
